Tracking 19193 objects as of 22-Jun-2018
HD Live streaming from Space Station
objects crossing your sky now

FENGYUN 1C DEB

Track FENGYUN 1C DEB now!
10-day predictions


NORAD ID: 31099
Int'l Code: 1999-025BGV
Perigee: 769.2 km
Apogee: 863.0 km
Inclination: 99.0 °
Period: 101.1 minutes
Semi major axis: 7187 km
RCS: 0.0107 m2 (small)
Launch date: May 10, 1999
Source: People's Republic of China (PRC)
Launch site: Taiyaun Space Center, China (TSC)

Note: This is SATELLITE DEBRIS
aabbcc
Your satellite tracking list
Your tracking list is empty




NASA's NSSDC Master Catalog

Two Line Element Set (TLE):
1 31099U 99025BGV 18173.32662279  .00000103  00000-0  62678-4 0  9991
2 31099  98.9708 305.7687 0065231 223.5432 191.4382 14.24859413585646
Source of the keplerian elements: AFSPC